THORAD AGENA D DEB, 18418

Orbit data source: Space-Track

THORAD AGENA D DEB, 18418 is space debris in SSO originally from a launch on Wed, 08 Apr 1970 UTC launched from the Air Force Western Test Range (AFWTR). Debris objects in space refer to the collection of defunct objects orbiting the Earth. Examples of debris include non-operational satellites, rocket bodies, and fragments generated from explosions, collisions, or faulty payload assembly.

Loading next visibility...
Identifier
18418, 1970-025PL
Orbit
SSO
Country
Flag of USUS
Related business
Manufacturer
Unknown
Mission
Spacecraft
Bus & Motor
Unknown
Mass
Unknown
Launch date (UTC)
1970-04-08 (56 years ago)
Launch vehicle
Unknown
Launch site
Air Force Western Test Range (AFWTR)
Object type
Payload
Rocket body
Debris
Shape & HBR
Unknown shape, 0.1 m
Radar Cross Section
Small (<0.1 m²)

Expand to show TLE details & history
Last TLE update: 15 hours ago

TLE from 15 hours ago
0 THORAD AGENA D DEB
1 18418U 70025PL  25353.03429280  .00001088  00000-0  10983-2 0  9992
2 18418 100.1790 147.2841 0000692 166.4884 317.2219 13.79906510765793
Epoch: 2025-12-19T00:49Z
TLE epoch observation values (Epoch: 2025-12-19T00:49:22.897Z)
Latitude
55.06574°
Longitude
-118.12663°
Altitude
972.866 km
Speed
7.371 km/s
True Right ascension
22h 48m 24s
True Declination
54° 54' 32"
Sunlit
Object was in daylight at epoch
Visualization orbit readout
Latitude
Unknown
Longitude
Unknown
Altitude
Unknown
Speed
Unknown
Apparent Right ascension
Unknown
Apparent Declination
Unknown
Sunlit
N/A
Visualization observer readout
Local Sidereal Time
14:17:03
Azimuth
Unknown
Elevation
Unknown
Doppler factor
Unknown
Orbital elements
Apogee altitude
962.013 km
Perigee altitude
960.998 km
Semi-major axis
7,339.642 km
Eccentricity
0.00007
Inclination
100.179°
RAAN
147.2841°
Arg. of periapsis
166.4884°
True anomaly
317.21651°
Mean anomaly
317.2219°
Eccentric anomaly
317.21921°
Mean motion
3.45168 °/min
Orbital period
104.3 mins
BSTAR
0.0010983
Loading maneuver chart data...
Computing Atmospheric mass density...

Documentation

Showing up to 5 results
|